Location: Jesenik
(50.2330°N, 17.2000°E)
Time: 18:37:41
(UTC+02:00)

ISS - Pass Details

Date: 26 March 2019
Orbit: 408 x 410 km, 51.6° (Epoch: 27 April)

Event Time Altitude Azimuth Distance (km) Brightness Sun altitude
Rises 19:22:29 0° 249° (WSW) 2,331 0.9 -11.7°
Reaches altitude 10° 19:24:34 10° 248° (WSW) 1,471 -0.2 -12.0°
Maximum altitude 19:27:52 79° 161° (SSE) 422 -3.9 -12.5°
Enters shadow 19:30:05 19° 77° (ENE) 1,040 -2.3 -12.8°
